Location: Unspecified
(0.0000°N, 0.0000°E)
Time: 20:48:16
(UTC+00:00)

COSMOS 1275 DEB - Pass Details

Date: 26 March 2026
Orbit: 902 x 973 km, 82.9° (Epoch: 8 April)

Event Time Altitude Azimuth Distance (km) Brightness Sun altitude
Rises 19:02:02 0° 319° (NW) 3,647 ? -14.1°
Reaches altitude 10° 19:06:15 10° 291° (WNW) 2,694 ? -15.1°
Maximum altitude 19:08:41 13° 267° (W) 2,508 ? -15.8°
Drops below altitude 10° 19:11:08 10° 243° (WSW) 2,683 ? -16.4°
Sets 19:15:21 0° 215° (SW) 3,616 ? -17.4°
